CAPE
0 0 0 0 0 0 0 0 0 0 0 0 0 0 0 0 0 235 603 721 754 1100 1336 1313 1393 1234 1334 1452 1656 1707 1666 1762
0 0 0 0 0 0 0 0 0 0 0 0 0 0 0 0 0 0 33 411 667 989 1110 1162 1051 1311 1254 1439 1659 1761 1754 1716
0 0 0 0 0 0 0 0 0 0 0 0 0 0 0 0 0 0 0 55 190 736 1142 1200 842 1068 1191 1422 1687 1821 1827 1812
0 0 0 0 0 0 0 0 0 0 0 0 0 0 0 0 0 0 22 98 101 170 431 660 1135 986 1194 1325 1550 1746 1832 1931
0 0 0 0 0 0 0 0 0 0 0 0 0 0 0 0 0 0 0 27 132 92 376 672 948 1087 1018 1125 1161 1282 1793 1866
0 0 0 0 0 0 0 0 0 0 0 0 0 0 0 0 0 0 0 60 185 132 653 652 806 1030 1103 1158 1108 1268 1489 1806
0 0 0 0 0 0 0 0 0 0 0 0 0 0 0 0 0 0 0 0 1 134 726 991 1021 1132 1063 1137 1405 1441 1713 1769
0 0 0 0 0 0 0 0 0 0 0 0 0 0 0 0 0 0 0 0 0 353 424 633 1040 1128 1108 1207 1331 1613 1786 1720
0 0 0 0 0 0 0 0 0 0 0 0 0 0 0 0 0 0 0 0 0 196 461 658 652 1105 1047 1203 1204 1619 1861 1931
0 0 0 0 0 0 0 0 0 0 0 0 0 0 0 0 0 0 0 0 0 0 15 861 381 319 984 1226 1558 1723 1931 2138
0 0 0 0 0 0 0 0 0 0 0 0 0 0 0 0 0 0 0 0 0 0 0 606 738 883 1181 1389 1701 1909 2010 2208
0 0 0 0 0 0 0 0 0 0 0 0 0 0 0 0 0 0 0 0 0 0 0 1 496 389 991 1216 1632 2025 2154 2263
0 0 0 0 0 61 0 0 0 0 0 32 10 0 0 0 0 0 1 0 0 0 0 29 46 315 1289 1452 1793 2012 1858 2055
1 0 0 0 0 0 12 22 8 0 0 2 73 179 0 111 1190 2092 2130 1398 0 0 38 555 680 750 1564 2182 1998 2107 2249 2682
1 0 0 0 0 36 155 104 46 16 0 2 55 338 73 1098 1584 1881 2142 1809 1205 967 1232 1185 1337 1528 1788 1786 1796 2120 2588 3149
15 0 0 0 0 0 83 106 83 18 0 1 371 440 310 82 128 654 1218 1309 761 609 785 868 1394 1797 2035 2386 2404 2247 2781 3019
42 21 0 0 0 0 1 97 52 26 24 21 22 2 4 43 55 0 22 60 246 376 425 360 464 388 229 355 2150 3073 2368 2333
1 0 23 3 0 2 43 104 71 26 62 38 42 1 1 6 134 91 80 264 242 223 255 226 295 329 267 266 197 1056 1793 2111
5 0 1 24 14 123 145 102 46 39 11 29 3 18 4 8 1 0 58 65 181 552 740 849 753 688 675 629 407 488 724 1230
CIN
0 0 0 0 0 0 0 0 0 0 0 0 0 0 0 0 0 -160 -178 -213 -255 -245 -208 -259 -262 -280 -268 -275 -265 -235 -221 -185
0 0 0 0 0 0 0 0 0 0 0 0 0 0 0 0 0 0 -105 -199 -222 -256 -247 -296 -311 -312 -337 -316 -301 -280 -253 -228
0 0 0 0 0 0 0 0 0 0 0 0 0 0 0 0 0 0 0 -257 -239 -263 -274 -319 -388 -343 -381 -367 -328 -300 -292 -270
0 0 0 0 0 0 0 0 0 0 0 0 0 0 0 0 0 0 -252 -271 -282 -276 -313 -319 -358 -407 -400 -410 -371 -368 -368 -328
0 0 0 0 0 0 0 0 0 0 0 0 0 0 0 0 0 0 0 -367 -290 -311 -312 -357 -353 -412 -447 -465 -418 -420 -377 -367
0 0 0 0 0 0 0 0 0 0 0 0 0 0 0 0 0 0 0 -391 -382 -398 -336 -373 -411 -492 -505 -478 -435 -433 -454 -407
0 0 0 0 0 0 0 0 0 0 0 0 0 0 0 0 0 0 0 0 -197 -471 -429 -451 -480 -539 -585 -501 -501 -450 -492 -460
0 0 0 0 0 0 0 0 0 0 0 0 0 0 0 0 0 0 0 0 -3 -373 -462 -499 -486 -555 -608 -578 -575 -536 -533 -561
0 0 0 0 0 0 0 0 0 0 0 0 0 0 0 0 0 0 0 0 0 -343 -390 -426 -497 -533 -567 -648 -661 -606 -589 -562
0 0 0 0 0 0 0 0 0 0 0 0 0 0 0 0 0 0 0 0 0 0 -197 -454 -485 -463 -564 -559 -637 -624 -577 -515
0 0 0 0 0 0 0 0 0 0 0 0 0 0 0 0 0 0 0 0 0 0 0 -469 -493 -509 -554 -550 -597 -566 -557 -544
0 0 0 0 0 0 0 0 0 0 0 0 0 0 0 0 0 0 0 0 0 0 0 -138 -578 -559 -566 -557 -557 -540 -547 -574
0 0 0 0 0 -15 0 0 0 0 0 -591 -150 0 0 0 0 0 -31 0 0 0 0 -392 -857 -668 -551 -482 -489 -513 -481 -454
0 0 0 0 0 0 -18 -106 -78 0 0 0 -538 -589 0 -531 -337 -316 -365 -507 0 0 -852 -786 -721 -621 -508 -475 -503 -517 -492 -438
0 0 0 0 0 -51 -15 -84 -159 -233 0 0 -117 -447 -324 -363 -350 -371 -361 -483 -574 -603 -671 -692 -679 -552 -530 -626 -591 -521 -457 -395
-2 0 0 0 0 0 -14 -51 -137 -266 0 0 -354 -371 -478 -507 -688 -555 -503 -518 -628 -673 -692 -730 -665 -603 -558 -514 -495 -481 -408 -386
0 -3 0 0 0 0 0 -31 -145 -257 -340 -409 -457 -145 -172 -551 -635 -127 -357 -859 -724 -712 -697 -782 -783 -821 -909 -896 -515 -346 -445 -434
0 0 0 0 0 0 -5 -56 -134 -196 -206 -335 -400 0 0 -32 -492 -598 -682 -656 -710 -759 -811 -852 -841 -847 -896 -918 -950 -649 -455 -390
-1 0 0 0 -25 -9 0 -55 -111 -130 -285 -297 -14 -448 -544 -522 0 0 -579 -624 -644 -576 -551 -572 -602 -636 -665 -702 -787 -733 -648 -526
Wind_Speed
20 12 23 14 25 21 6 2 4 14 14 11 9 19 18 19 16 18 22 24 27 26 24 23 23 23 23 23 22 22 23 19
18 20 23 15 17 11 14 12 13 8 9 13 19 19 18 18 18 19 19 21 23 23 24 22 24 23 24 23 23 22 21 19
14 19 22 10 18 10 11 9 8 6 10 8 16 19 22 22 21 20 19 20 21 21 23 24 21 20 22 23 23 22 21 20
14 12 21 24 19 20 12 11 12 9 5 4 11 8 13 16 13 12 14 17 18 20 19 20 21 21 23 22 23 24 22 21
12 11 8 18 23 21 20 10 15 13 4 9 8 3 7 10 11 12 12 13 14 14 17 19 20 21 21 23 25 24 20 21
12 5 5 5 6 19 23 17 18 21 17 7 3 5 9 10 11 10 10 11 11 13 15 17 19 19 20 22 22 21 22 22
5 8 8 10 12 12 15 21 24 21 27 19 17 16 13 11 10 8 10 10 12 14 14 15 16 17 19 19 19 20 20 21
8 9 8 14 15 14 16 19 17 23 26 17 8 15 18 21 17 16 13 13 12 11 13 15 17 19 18 19 21 21 21 24
6 6 14 17 22 19 16 15 16 23 17 13 15 15 15 19 17 16 14 13 13 14 13 14 17 18 20 21 16 20 22 20
6 4 11 7 3 7 14 14 20 23 19 15 14 16 18 18 19 19 18 17 13 14 13 15 17 17 17 17 19 19 18 17
6 13 16 19 8 1 3 12 7 15 21 20 20 20 17 17 18 20 18 16 13 12 12 11 14 15 15 17 17 17 19 18
5 9 13 2 15 8 4 14 4 5 10 12 18 17 13 14 16 17 17 15 13 11 9 10 10 13 15 17 17 18 19 22
15 12 9 11 7 4 11 1 5 7 12 13 13 13 13 5 4 6 9 12 10 7 8 6 8 13 16 14 18 19 11 12
12 13 22 9 15 18 6 6 11 13 12 16 15 19 18 8 4 4 2 3 5 7 5 3 4 10 11 12 10 10 11 13
11 10 12 12 15 16 12 13 12 14 12 13 18 17 11 8 7 6 6 9 8 9 10 6 5 7 9 7 7 9 12 13
18 22 23 24 24 20 15 16 14 11 13 13 14 9 9 9 8 7 8 8 9 11 12 9 8 9 7 5 4 7 10 11
17 20 20 24 25 19 20 14 10 8 9 4 5 9 8 8 8 7 8 8 8 10 10 10 7 7 5 4 2 4 7 9
13 14 14 19 17 17 17 14 6 6 3 6 9 7 5 5 6 7 8 8 9 9 8 6 6 6 6 5 4 5 5 5
20 19 22 19 19 12 16 10 6 8 3 6 7 6 9 5 3 6 9 9 9 8 8 7 6 7 6 6 4 3 4 7
Wind_Direction
197 178 186 178 213 215 259 139 249 224 246 259 231 219 213 222 215 209 209 210 210 208 205 203 202 200 200 200 201 199 202 202
191 187 197 193 170 175 212 223 234 216 241 236 195 208 210 220 217 218 217 212 213 210 209 204 205 198 198 200 201 201 201 202
178 200 174 179 190 200 201 222 228 251 236 203 213 212 210 213 212 214 216 214 213 210 209 209 205 202 201 198 197 199 201 201
206 186 223 203 197 197 200 191 235 275 261 222 223 219 229 236 230 232 226 219 217 215 210 210 205 202 203 199 198 200 200 201
226 218 197 220 216 210 224 232 206 214 176 224 243 231 233 241 234 229 227 227 225 215 211 209 207 205 202 200 204 202 199 200
231 225 24 242 207 218 225 228 232 231 242 206 264 250 262 271 274 256 239 212 211 218 214 211 208 203 203 206 204 201 198 199
324 310 295 270 267 253 243 244 237 246 242 238 249 276 283 283 284 285 258 234 215 216 214 212 207 204 206 204 199 199 198 200
305 300 294 277 263 255 249 249 253 259 261 270 314 250 256 267 277 269 262 251 244 225 213 211 206 203 201 202 200 193 195 204
255 317 316 267 241 242 244 237 238 248 255 252 249 238 249 253 244 250 248 240 237 227 218 217 212 204 202 203 193 197 200 204
268 274 240 263 335 279 259 252 230 248 246 242 238 242 235 231 241 249 248 250 236 237 232 217 220 214 211 194 195 199 205 204
238 226 282 291 263 224 316 258 269 273 254 243 237 253 250 242 239 242 249 252 245 249 241 233 212 209 197 194 192 194 203 202
210 243 238 261 237 255 174 265 144 339 292 279 247 241 249 241 231 240 239 242 240 231 221 221 216 204 193 200 192 201 203 206
224 243 260 275 266 124 226 16 328 300 294 292 261 259 293 336 208 248 267 243 233 217 218 220 201 194 199 199 203 212 211 213
226 242 240 261 272 239 330 312 308 305 302 289 279 280 264 267 183 140 206 135 165 154 128 105 173 195 196 196 196 196 196 198
223 222 270 288 302 319 314 293 299 292 302 288 282 267 223 177 163 141 136 102 112 128 113 90 85 155 149 149 166 176 190 197
255 259 265 274 281 277 295 290 301 295 294 282 265 234 184 154 147 128 113 107 111 105 96 86 76 88 106 136 179 188 197 198
267 263 274 268 269 271 269 265 273 303 283 251 177 168 154 138 127 122 104 99 92 87 85 79 68 66 52 30 338 206 218 218
243 251 260 262 268 269 240 247 240 267 205 107 111 98 102 105 115 120 112 103 90 89 89 85 77 68 45 22 350 316 278 237
254 265 255 279 290 257 246 217 194 225 188 103 84 100 102 98 90 100 91 91 91 83 76 76 75 61 38 20 3 350 334 312